Location: Marcé
(47.5801°N, 0.3280°W)
Time: 08:34:40
(UTC+01:00)

Explorer 7 - Pass Details

Date: 08 December 2021
Orbit: 483 x 674 km, 50.3° (Epoch: 24 January)

Event Time Altitude Azimuth Distance (km) Brightness Sun altitude
Rises 08:09:20 0° 278° (W) 2,794 - -4.7°
Exits shadow 08:10:21 - 279° (W) 2,390 9.5 -4.6°
Reaches altitude 10° 08:11:42 10° 282° (WNW) 1,860 8.9 -4.4°
Maximum altitude 08:15:53 58° 2° (N) 635 7.0 -3.8°
Drops below altitude 10° 08:19:48 10° 82° (E) 1,751 10.3 -3.2°
Sets 08:21:58 0° 87° (E) 2,612 11.3 -2.9°
